Weather in Qinhuangdao

China     39°56′49″N   119°35′38″E
temp.,
°C
wind,
m/s
gust,
m/s
humid.,
%
clouds,
%
prec.,
mm/h
press.,
hPa
HPBL,
m
18 april, sun
sun1823:00+10nw11230 0.0 101910
02:00+9nnw21220 0.0 101910
05:00+8nw22230 0.0 101911
08:00+14w23160 0.0 1018265
11:00+19wsw68120 0.0 10161146
14:00+22wsw68120 0.0 10131798
17:00+22wsw79120 0.0 10112223
20:00+16sw34240 0.0 101258
19 april, mon
mon1923:00+14w22290 0.0 101218
02:00+13wnw36315 0.0 101181
05:00+12w45350 0.0 101175
08:00+18w58290 0.0 1011355
11:00+25w57160 0.0 1011689
14:00+28w5690 0.0 10092703
17:00+28sw56985 0.0 10091447
20:00+21nnw3319100 0.0 101324
20 april, tue
tue2023:00+19nne2319100 0.0 101418
02:00+16ne4531100 0.0 101672
05:00+14ne474112 0.0 1017129
08:00+18ene56265 0.0 1019506
11:00+22e32195 0.0 1019810
14:00+21sse4333100 0.0 1017486
17:00+18s2341100 0.0 1017302
20:00+15wsw1152100 0.0 101912
21 april, wed
wed2123:00+13w1155100 0.0 101910
02:00+13n0151100 0.0 101910
05:00+12s1150100 0.0 101910
08:00+14s2337100 0.0 1020240
11:00+15s3631100 0.0 1020502
14:00+15s3432100 0.0 1019489
17:00+14s3540100 0.0 1019568
20:00+12wnw2557100 0.9 1020432
22 april, thu
thu2223:00+13n1148100 0.0 101921
02:00+11e2561100 0.0 1018217
05:00+11ene2558100 0.0 1016227
08:00+11e2361100 0.0 1017284
11:00+11ese2269100 0.1 1017437
14:00+11e237098 0.4 1015408
17:00+12e347384 0.0 1015422
20:00+9ene349182 0.0 1016100